EW6762 Weather Reports


time (UTC)temp
F
wind
direction
speed
knots
gust
knots
rain 1hr
in
rain 24hr
in
rain mn
in
humidity
%
barometer
mb
20260505005317 72 136 3.5 8.7 0.00 0.00 0.00 61 1016.4
20260505004311 73 141 5.2 9.6 0.00 0.00 0.00 61 1016.2
20260505003334 73 131 5.2 7.8 0.00 0.00 0.00 60 1016.1
20260505002312 74 144 6.1 11.3 0.00 0.00 0.00 59 1016.0
20260505001335 75 132 6.1 10.4 0.00 0.00 0.00 56 1015.8
20260505000351 76 140 6.1 12.2 0.00 0.00 0.00 49 1015.7
20260504235328 77 114 3.5 7.8 0.00 0.00 0.00 43 1015.5
20260504234323 77 146 3.5 9.6 0.00 0.00 0.00 43 1015.4
20260504233327 78 153 3.5 12.2 0.00 0.00 0.00 41 1015.1
20260504232322 79 163 6.1 11.3 0.00 0.00 0.00 40 1015.0
20260504231318 80 93 2.6 11.3 0.00 0.00 0.00 41 1015.0
20260504230318 81 205 3.5 8.7 0.00 0.00 0.00 39 1015.0
20260504225314 82 212 2.6 7.8 0.00 0.00 0.00 38 1014.9
20260504224310 82 178 2.6 7.0 0.00 0.00 0.00 38 1015.0
20260504223313 82 126 4.3 9.6 0.00 0.00 0.00 39 1014.9
20260504222308 83 89 4.3 9.6 0.00 0.00 0.00 37 1014.9
20260504221310 83 153 3.5 8.7 0.00 0.00 0.00 37 1014.9
20260504220325 84 151 3.5 9.6 0.00 0.00 0.00 36 1015.0
20260504215348 83 157 5.2 9.6 0.00 0.00 0.00 35 1015.0
20260504214321 84 165 3.5 11.3 0.00 0.00 0.00 35 1015.1
20260504213320 84 110 4.3 13.0 0.00 0.00 0.00 37 1015.0
20260504212318 84 157 4.3 9.6 0.00 0.00 0.00 37 1015.0
20260504211315 84 142 4.3 9.6 0.00 0.00 0.00 35 1015.0
20260504210315 84 126 5.2 10.4 0.00 0.00 0.00 36 1015.1
20260504205310 85 235 3.5 11.3 0.00 0.00 0.00 36 1015.1
20260504204330 85 115 5.2 10.4 0.00 0.00 0.00 34 1015.1
20260504203320 85 175 3.5 9.6 0.00 0.00 0.00 35 1015.3
20260504202323 85 135 4.3 8.7 0.00 0.00 0.00 35 1015.4
20260504201314 84 205 1.7 7.0 0.00 0.00 0.00 36 1015.5
20260504200310 84 245 5.2 8.7 0.00 0.00 0.00 36 1015.5
20260504195313 85 121 4.3 12.2 0.00 0.00 0.00 37 1015.4
20260504194325 84 135 4.3 11.3 0.00 0.00 0.00 35 1015.6
20260504193325 84 109 4.3 10.4 0.00 0.00 0.00 35 1015.6
20260504192318 84 242 4.3 12.2 0.00 0.00 0.00 34 1015.8
20260504191336 84 63 5.2 10.4 0.00 0.00 0.00 35 1015.9
20260504190326 84 157 4.3 9.6 0.00 0.00 0.00 36 1016.1
20260504185345 83 146 3.5 10.4 0.00 0.00 0.00 36 1016.1
20260504184320 83 161 3.5 7.8 0.00 0.00 0.00 36 1016.2
20260504183318 83 200 2.6 10.4 0.00 0.00 0.00 37 1016.1
20260504182333 83 148 5.2 12.2 0.00 0.00 0.00 36 1016.4
20260504181323 82 216 3.5 13.0 0.00 0.00 0.00 38 1016.6
20260504180345 82 202 3.5 8.7 0.00 0.00 0.00 38 1016.8
20260504175342 82 155 2.6 10.4 0.00 0.00 0.00 39 1016.7
20260504174315 82 177 6.1 13.9 0.00 0.00 0.00 37 1016.9
20260504173332 81 215 4.3 9.6 0.00 0.00 0.00 42 1017.0
20260504172322 81 121 3.5 9.6 0.00 0.00 0.00 42 1017.2
20260504171314 81 231 4.3 9.6 0.00 0.00 0.00 42 1017.3
20260504170309 80 150 5.2 13.0 0.00 0.00 0.00 41 1017.4
20260504160312 77 116 4.3 9.6 0.00 0.00 0.00 47 1018.0
20260504150314 75 229 2.6 5.2 0.00 0.00 0.00 50 1018.4
20260504140321 72 111 1.7 3.5 0.00 0.00 0.00 60 1018.6
20260504130335 64 153 3.5 7.0 0.00 0.00 0.00 74 1018.5
20260504120314 57 180 3.5 6.1 0.00 0.00 0.00 85 1018.5
20260504110325 54 126 1.7 3.5 0.00 0.00 0.00 87 1018.7
20260504100309 55 171 0.9 3.5 0.00 0.00 0.00 84 1018.6
20260504081340 56 165 1.7 5.2 0.00 0.04 0.00 81 1018.5
20260504080321 56 200 2.6 6.1 0.00 0.04 0.00 81 1018.5
20260504070320 57 182 1.7 7.0 0.00 0.04 0.00 78 1018.6
20260504050333 57 148 1.7 4.3 0.00 0.04 0.00 73 1018.9
20260504045334 57 175 1.7 4.3 0.00 0.04 0.00 72 1018.9
20260504044325 57 154 1.7 7.0 0.00 0.04 0.00 71 1018.9
20260504043325 57 105 2.6 6.1 0.00 0.04 0.00 70 1019.0
20260504042317 57 133 1.7 3.5 0.00 0.04 0.00 68 1018.9
20260504041335 57 155 0.9 2.6 0.00 0.04 0.00 68 1018.9
20260504040310 57 191 0.0 2.6 0.00 0.04 0.00 67 1018.7
20260504035323 57 188 0.9 2.6 0.00 0.04 0.01 66 1018.7
20260504034347 57 161 0.0 2.6 0.00 0.04 0.01 65 1018.7
20260504033348 57 157 0.9 1.7 0.00 0.04 0.01 64 1018.7
20260504032325 57 130 0.9 2.6 0.00 0.04 0.01 62 1018.8
20260504031329 58 94 0.0 1.7 0.00 0.04 0.01 60 1018.8
20260504030324 58 121 0.9 2.6 0.00 0.04 0.01 59 1018.8
20260504025321 58 80 0.9 1.7 0.00 0.04 0.01 59 1018.8
20260504024322 59 115 1.7 2.6 0.00 0.04 0.01 58 1018.7
20260504023316 59 90 0.9 1.7 0.00 0.04 0.01 57 1018.7
20260504022311 59 88 0.9 1.7 0.00 0.04 0.01 56 1018.7
20260504021331 60 55 0.0 1.7 0.00 0.04 0.01 57 1018.6
20260504020334 60 74 0.0 1.7 0.00 0.04 0.01 57 1018.6
20260504015310 60 62 0.0 1.7 0.00 0.04 0.01 56 1018.5
20260504014334 60 332 0.0 0.9 0.00 0.04 0.01 56 1018.4
20260504013311 60 331 0.0 0.9 0.00 0.04 0.01 56 1018.3
20260504012327 61 319 0.0 0.9 0.00 0.04 0.01 57 1018.1
20260504011330 61 319 0.0 0.9 0.00 0.04 0.01 57 1018.0
20260504010311 62 319 0.0 1.7 0.00 0.04 0.01 51 1017.8